Date,TemperatureHighF,TemperatureAvgF,TemperatureLowF,DewpointHighF,DewpointAvgF,DewpointLowF,HumidityHigh,HumidityAvg,HumidityLow,PressureMaxIn,PressureMinIn,WindSpeedMaxMPH,WindSpeedAvgMPH,GustSpeedMaxMPH,PrecipitationSumIn
2013-1-1,83.8,78.9,74.3,75.0,71.4,69.0,90,78,69,30.07,29.98,16,6,19,0.04
2013-1-2,85.4,79.3,74.3,72.0,69.2,66.0,80,71,62,30.04,29.95,16,6,19,0.00
2013-1-3,81.9,77.0,72.9,75.0,71.5,67.0,93,83,69,30.10,29.99,11,4,19,0.11
2013-1-4,84.8,79.2,72.9,73.0,72.1,70.0,92,79,66,30.15,30.05,19,6,23,0.01
2013-1-5,84.9,80.4,78.5,73.0,71.2,70.0,80,73,64,30.18,30.07,20,10,26,0.00
2013-1-6,84.8,80.3,77.8,72.0,70.8,69.0,80,73,62,30.12,30.03,17,10,27,0.00
2013-1-7,84.6,79.4,73.6,73.0,71.5,70.0,93,77,63,30.10,30.00,17,8,25,0.10
2013-1-8,84.3,78.5,74.8,73.0,71.5,69.0,87,79,69,30.14,30.02,21,10,30,0.13
2013-1-9,83.8,79.6,74.5,72.0,69.6,67.0,88,72,57,30.18,30.07,21,11,30,0.05
2013-1-10,83.6,78.6,75.0,72.0,69.8,66.0,87,74,65,30.16,30.06,18,9,30,0.01
2013-1-11,84.7,78.3,74.2,71.0,68.6,67.0,85,72,58,30.08,29.97,15,6,23,0.01
2013-1-12,85.5,77.2,71.7,72.0,70.0,68.0,93,79,60,30.00,29.92,14,5,21,0.10
2013-1-13,84.5,78.2,75.0,69.0,65.1,62.0,76,65,50,30.03,29.95,13,4,17,0.00
2013-1-14,84.5,77.3,71.5,71.0,66.2,63.0,86,69,54,30.05,29.95,15,5,18,0.02
2013-1-15,84.3,77.1,71.0,72.0,68.8,66.0,90,76,62,30.02,29.94,17,6,21,0.09
2013-1-16,82.0,76.7,72.6,72.0,68.4,64.0,90,76,65,30.04,29.94,18,6,23,0.02
2013-1-17,84.0,77.9,70.9,71.0,69.3,67.0,93,76,58,30.06,29.96,16,6,23,0.06
2013-1-18,83.3,77.0,72.4,73.0,70.2,69.0,91,80,66,30.09,29.98,13,4,16,0.05
2013-1-19,84.7,78.8,74.2,72.0,69.7,67.0,85,74,63,30.09,29.98,16,7,22,0.00
2013-1-20,84.1,78.1,73.7,73.0,70.5,68.0,89,78,62,30.06,29.96,13,4,19,0.01
2013-1-21,83.6,77.2,70.9,74.0,71.0,68.0,92,81,64,30.03,29.93,11,3,17,0.02
2013-1-22,85.4,78.6,73.1,74.0,71.2,69.0,88,78,63,30.07,29.96,13,4,23,0.00
2013-1-23,86.7,78.3,73.9,74.0,72.2,70.0,91,82,62,30.11,30.00,15,4,23,0.01
2013-1-24,85.4,78.9,74.2,72.0,70.6,69.0,87,76,63,30.10,29.98,13,5,19,0.00
2013-1-25,85.7,77.8,71.9,75.0,71.1,69.0,90,80,62,30.09,30.00,15,4,18,0.09
2013-1-26,83.8,77.9,73.9,75.0,72.6,71.0,94,84,70,30.09,30.01,18,6,26,0.12
2013-1-27,85.4,79.2,73.5,75.0,72.2,70.0,90,79,68,30.13,30.03,12,5,17,0.01
2013-1-28,84.5,79.1,75.1,75.0,71.5,69.0,86,78,67,30.17,30.06,15,6,21,0.10
2013-1-29,82.1,77.3,73.0,74.0,70.8,68.0,89,80,69,30.12,30.02,14,6,21,0.13
2013-1-30,83.5,77.5,73.2,72.0,70.5,68.0,92,79,65,30.09,30.01,22,7,31,0.12
2013-1-31,84.0,76.8,71.8,75.0,72.4,70.0,94,86,71,30.08,29.99,16,5,22,0.35
2013-2-1,81.6,76.5,72.1,73.0,70.3,66.0,95,81,65,30.08,29.98,17,5,26,0.41
2013-2-2,84.8,77.9,70.7,69.0,67.0,65.0,87,70,55,30.05,29.95,14,4,16,0.00
2013-2-3,84.6,77.2,71.7,70.0,67.8,64.0,87,74,56,30.00,29.89,16,4,24,0.00
2013-2-4,84.5,76.4,69.9,71.0,66.7,63.0,88,72,58,30.01,29.89,12,4,19,0.00
2013-2-5,83.9,75.7,70.2,70.0,66.8,62.0,92,75,54,30.04,29.94,14,4,19,0.07
2013-2-6,83.9,76.6,71.0,71.0,69.7,67.0,93,80,58,30.03,29.93,12,4,21,0.04
2013-2-7,84.6,78.0,72.0,74.0,71.5,69.0,90,81,68,30.00,29.90,18,5,24,0.01
2013-2-8,83.9,77.4,71.3,74.0,71.5,69.0,95,82,68,30.01,29.91,14,5,22,0.61
2013-2-9,84.6,78.1,71.9,72.0,70.4,69.0,90,77,64,30.03,29.94,16,6,19,0.00
2013-2-10,85.2,78.2,71.5,71.0,70.0,68.0,91,77,60,30.08,29.98,11,4,20,0.00
2013-2-11,82.4,77.5,74.9,73.0,69.9,65.0,87,78,70,30.10,30.02,22,8,23,0.02
2013-2-12,83.3,77.7,74.4,68.0,64.9,61.0,74,65,55,30.09,30.02,14,7,18,0.00
2013-2-13,83.8,76.8,69.8,70.0,67.1,65.0,87,72,57,30.07,29.97,16,5,21,0.00
2013-2-14,83.3,78.1,74.4,73.0,71.2,69.0,86,79,68,30.09,29.98,14,7,22,0.01
2013-2-15,85.0,78.3,72.4,74.0,71.1,69.0,89,79,68,30.08,29.95,17,5,27,0.00
2013-2-16,89.1,79.9,72.4,72.0,68.0,64.0,87,69,43,30.02,29.92,13,5,21,0.00
2013-2-17,86.9,78.4,73.0,73.0,70.4,68.0,87,77,56,30.06,29.95,14,5,24,0.00
2013-2-18,84.1,77.7,71.5,73.0,70.5,68.0,90,79,67,30.11,30.01,16,5,22,0.00
2013-2-19,82.7,77.3,74.0,72.0,70.0,69.0,86,78,66,30.11,30.01,14,7,24,0.09
2013-2-20,84.0,77.5,74.8,73.0,70.7,68.0,88,80,61,30.06,29.93,16,6,25,0.05
2013-2-21,85.8,78.4,72.7,73.0,71.0,69.0,89,78,59,30.04,29.92,18,6,23,0.01
2013-2-22,85.4,78.2,71.5,73.0,70.4,67.0,87,77,65,30.07,29.96,12,5,19,0.00
2013-2-23,83.8,78.7,75.8,71.0,69.1,67.0,82,73,61,30.06,29.96,15,7,19,0.00
2013-2-24,82.9,77.8,73.0,72.0,70.1,67.0,83,77,68,30.04,29.92,19,8,24,0.00
2013-2-25,83.4,77.9,71.9,72.0,70.5,68.0,89,78,67,30.00,29.89,15,5,23,0.00
2013-2-26,83.7,78.7,75.5,73.0,71.2,70.0,86,78,66,30.05,29.95,23,8,23,0.00
2013-2-27,87.8,79.4,73.7,73.0,70.8,68.0,88,76,53,30.04,29.93,19,6,22,0.00
2013-2-28,84.6,78.2,71.6,72.0,69.4,67.0,85,75,58,30.02,29.89,16,5,24,0.00
2013-3-1,87.2,78.3,72.2,72.0,69.6,68.0,87,75,57,29.98,29.85,12,4,17,0.00
2013-3-2,84.5,77.6,71.0,72.0,68.0,65.0,87,73,58,29.96,29.85,15,4,20,0.00
2013-3-3,85.3,78.1,71.7,74.0,70.3,67.0,86,77,65,29.98,29.87,8,2,14,0.00
2013-3-4,83.6,78.0,74.3,75.0,71.9,70.0,89,81,70,30.04,29.93,11,3,17,0.00
2013-3-5,80.2,76.6,74.0,72.0,69.3,65.0,90,78,68,30.08,29.98,10,2,14,0.01
2013-3-6,84.2,77.7,72.6,70.0,67.4,63.0,83,71,58,30.07,29.97,14,4,16,0.00
2013-3-7,86.9,78.9,72.6,75.0,71.8,69.0,90,79,66,30.04,29.95,9,2,13,0.09
2013-3-8,83.0,76.9,72.6,72.0,69.3,63.0,94,78,61,30.05,29.96,7,1,9,0.35
2013-3-9,82.8,75.1,70.8,71.0,68.0,65.0,89,79,63,30.04,29.95,7,1,11,0.02
2013-3-10,82.2,77.4,73.9,69.0,64.9,62.0,84,66,55,30.02,29.93,7,3,12,0.01
2013-3-11,83.3,77.5,74.2,66.0,63.6,62.0,69,63,52,30.02,29.93,10,3,15,0.00
2013-3-12,84.4,78.3,74.0,66.0,62.6,58.0,73,59,43,30.07,29.96,14,5,17,0.00
2013-3-13,84.2,78.1,75.0,67.0,62.0,58.0,72,58,45,30.03,29.93,15,6,21,0.00
2013-3-14,84.6,77.9,74.9,66.0,62.9,60.0,70,61,46,29.98,29.87,14,5,19,0.00
2013-3-15,86.3,78.7,72.0,67.0,64.2,61.0,79,62,46,30.01,29.89,8,2,12,0.00
2013-3-16,84.8,77.5,73.1,71.0,67.2,65.0,83,71,54,30.04,29.93,11,4,24,0.01
2013-3-17,84.0,78.4,74.3,72.0,69.6,67.0,84,74,60,30.08,29.97,16,8,23,0.01
2013-3-18,83.5,77.9,73.0,71.0,69.6,67.0,87,76,63,30.08,29.98,20,9,27,0.02
2013-3-19,83.3,78.0,73.1,73.0,71.2,69.0,90,79,69,30.02,29.90,19,8,23,0.08
2013-3-20,85.0,79.4,73.7,74.0,71.0,67.0,86,76,59,29.96,29.84,15,4,23,0.00
2013-3-21,93.5,82.1,76.1,74.0,70.8,69.0,82,70,47,29.96,29.81,12,3,19,0.00
2013-3-22,88.1,80.3,75.5,78.0,73.9,70.0,91,81,66,30.03,29.90,14,3,23,0.05
2013-3-23,86.8,80.2,75.7,77.0,74.6,73.0,92,83,70,30.06,29.94,13,4,19,0.00
2013-3-24,85.1,79.8,75.5,75.0,72.8,70.0,88,79,67,30.02,29.87,17,6,25,0.00
2013-3-25,85.5,80.2,74.4,76.0,72.0,69.0,86,76,60,29.99,29.86,17,5,23,0.00
2013-3-26,93.0,82.2,75.8,76.0,71.2,63.0,88,71,39,30.02,29.89,14,4,22,0.00
2013-3-27,89.5,80.7,73.8,77.0,73.0,67.0,88,78,47,30.03,29.92,10,3,17,0.00
2013-3-28,88.0,80.8,75.5,74.0,72.2,70.0,89,76,61,30.03,29.93,10,4,15,0.00
2013-3-29,78.1,75.7,72.5,73.0,70.5,68.0,93,84,76,30.11,29.96,12,4,17,0.46
2013-3-30,81.1,76.5,73.0,75.0,70.7,68.0,90,82,74,30.12,30.03,17,8,26,0.37
2013-3-31,80.1,76.1,73.0,74.0,72.1,70.0,94,87,78,30.12,30.04,19,8,29,0.57
2013-4-1,84.5,79.5,76.2,75.0,72.5,70.0,88,79,69,30.10,30.00,19,8,26,0.00
2013-4-2,90.7,82.0,74.7,73.0,70.8,68.0,87,70,49,30.04,29.95,16,5,22,0.00
2013-4-3,86.9,80.3,74.5,77.0,73.2,71.0,88,79,65,30.05,29.94,13,4,21,0.00
2013-4-4,84.6,79.4,73.8,75.0,72.3,70.0,90,79,71,30.07,29.98,19,6,26,0.00
2013-4-5,84.8,79.3,76.4,75.0,72.6,70.0,85,80,70,30.07,29.94,18,7,23,0.02
2013-4-6,91.1,82.1,74.2,76.0,71.9,70.0,91,73,50,30.03,29.92,18,5,30,0.00
2013-4-7,85.8,80.8,76.5,78.0,74.9,72.0,90,82,72,30.04,29.93,15,5,21,0.04
2013-4-8,85.3,80.8,77.8,76.0,74.4,73.0,88,81,72,30.04,29.93,18,8,25,0.01
2013-4-9,85.8,79.6,75.9,76.0,74.0,71.0,91,83,70,30.05,29.93,15,8,23,0.07
2013-4-10,85.4,79.9,76.8,74.0,72.7,70.0,87,79,66,30.03,29.94,17,7,25,0.00
2013-4-11,85.3,80.3,76.7,72.0,70.7,69.0,81,73,61,30.03,29.93,17,8,24,0.00
2013-4-12,85.8,80.0,76.2,75.0,71.9,69.0,89,76,67,30.01,29.93,15,7,23,0.01
2013-4-13,84.5,79.2,73.7,76.0,73.5,71.0,92,82,71,30.00,29.91,17,7,27,0.28
2013-4-14,85.9,80.3,76.7,75.0,73.2,71.0,88,79,68,30.01,29.93,19,8,25,0.05
2013-4-15,85.0,80.1,76.6,76.0,73.3,72.0,86,80,71,30.05,29.96,17,8,25,0.00
2013-4-16,87.0,78.3,71.8,75.0,72.2,69.0,95,82,67,30.03,29.94,13,4,22,0.93
2013-4-17,85.2,78.0,71.4,76.0,71.9,70.0,95,82,67,30.00,29.91,21,6,24,0.01
2013-4-18,84.8,79.4,74.3,73.0,71.6,70.0,90,77,64,30.04,29.93,19,9,28,0.12
2013-4-19,84.2,80.0,77.2,72.0,70.8,69.0,80,74,63,30.07,29.98,25,12,29,0.00
2013-4-20,83.2,79.2,76.7,74.0,71.7,70.0,85,78,68,30.07,29.97,22,11,27,0.00
2013-4-21,84.0,79.3,75.1,72.0,69.7,67.0,84,73,60,30.07,29.97,18,9,25,0.00
2013-4-22,85.7,79.2,73.1,72.0,68.2,65.0,79,69,57,30.03,29.93,16,6,21,0.01
2013-4-23,84.3,78.2,71.4,73.0,70.4,68.0,91,77,65,30.00,29.89,17,6,26,0.08
2013-4-24,85.9,78.9,75.1,74.0,70.8,69.0,84,76,65,30.00,29.93,13,3,21,0.00
2013-4-25,88.3,80.0,73.1,73.0,71.2,70.0,89,75,59,30.02,29.94,10,3,15,0.00
2013-4-26,85.7,79.9,74.7,73.0,71.2,70.0,87,75,63,30.02,29.95,8,2,11,0.00
2013-4-27,86.9,79.5,74.2,74.0,72.1,70.0,91,78,63,30.00,29.90,14,4,19,0.09
2013-4-28,86.3,78.9,73.0,75.0,72.5,71.0,94,81,66,29.99,29.90,13,4,17,0.25
2013-4-29,86.9,79.5,73.6,75.0,73.0,71.0,92,81,65,29.98,29.91,14,6,21,0.16
2013-4-30,86.5,79.4,75.5,76.0,73.3,70.0,88,82,70,30.00,29.93,15,6,22,0.00
2013-5-1,85.4,80.3,75.4,75.0,72.9,71.0,88,78,68,29.99,29.90,19,6,24,0.00
2013-5-2,87.6,80.9,75.6,76.0,74.2,72.0,89,80,68,29.94,29.84,15,4,18,0.00
2013-5-3,88.1,81.8,76.2,77.0,74.3,72.0,89,78,68,29.89,29.80,6,2,10,0.00
2013-5-4,89.7,82.7,76.9,77.0,74.5,72.0,87,77,61,29.86,29.75,7,2,14,0.00
2013-5-5,88.3,81.6,77.3,79.0,75.4,73.0,94,82,64,29.92,29.77,7,1,13,0.27
2013-5-6,88.2,80.6,75.9,79.0,76.0,74.0,94,86,73,30.00,29.88,8,1,15,0.03
2013-5-7,88.2,79.2,75.1,79.0,75.4,73.0,94,88,72,30.07,29.92,11,2,19,0.29
2013-5-8,85.4,78.3,74.7,79.0,75.5,73.0,95,91,76,30.11,30.00,18,5,23,1.17
2013-5-9,84.7,78.5,74.3,77.0,74.5,72.0,96,87,71,30.12,30.02,18,6,23,1.30
2013-5-10,86.6,79.0,72.2,77.0,73.9,70.0,95,84,69,30.09,29.92,16,6,29,0.79
2013-5-11,87.5,79.1,72.5,76.0,73.3,70.0,94,83,68,30.03,29.92,6,1,13,0.01
2013-5-12,87.6,79.8,75.0,76.0,74.2,72.0,94,83,67,29.99,29.91,7,2,12,0.69
2013-5-13,88.3,80.8,75.0,79.0,75.7,70.0,95,84,70,30.01,29.93,17,4,21,0.10
2013-5-14,89.5,81.7,76.7,78.0,75.5,72.0,89,82,63,30.02,29.93,14,4,26,0.30
2013-5-15,87.3,80.0,77.4,78.0,75.2,72.0,90,85,72,30.01,29.93,14,3,19,0.22
2013-5-16,87.9,81.6,77.6,76.0,74.7,73.0,90,80,66,30.02,29.93,13,5,18,0.00
2013-5-17,87.0,81.8,78.0,76.0,74.4,72.0,87,78,67,30.06,29.96,18,7,24,0.00
2013-5-18,86.7,81.1,75.3,75.0,72.8,71.0,86,76,63,30.06,29.99,16,6,21,0.00
2013-5-19,87.1,81.2,76.7,76.0,73.8,72.0,84,78,66,30.04,29.95,16,6,21,0.00
2013-5-20,86.1,81.2,77.0,75.0,73.6,72.0,88,78,68,30.03,29.95,21,8,24,0.00
2013-5-21,84.8,80.2,76.6,75.0,73.9,72.0,89,81,72,30.01,29.93,17,9,24,0.01
2013-5-22,81.7,76.9,73.6,76.0,73.9,71.0,95,90,80,30.03,29.93,21,7,26,2.06
2013-5-23,85.8,80.7,77.4,76.0,73.7,71.0,85,79,71,30.05,29.97,23,10,25,0.09
2013-5-24,86.0,80.8,77.1,77.0,75.0,72.0,90,82,71,30.05,29.95,16,8,23,0.04
2013-5-25,88.6,80.0,75.1,77.0,75.3,73.0,94,85,64,30.05,29.95,18,6,19,0.40
2013-5-26,86.6,81.2,77.9,78.0,75.9,74.0,92,84,73,30.06,29.98,17,7,22,0.08
2013-5-27,85.9,79.7,72.6,78.0,75.3,70.0,95,86,75,30.07,29.97,19,7,38,0.26
2013-5-28,86.4,80.4,74.6,78.0,76.0,73.0,95,86,75,30.05,29.98,17,8,24,0.03
2013-5-29,86.0,81.5,78.7,78.0,75.6,74.0,89,82,72,30.05,29.97,18,9,24,0.08
2013-5-30,86.8,81.4,77.0,78.0,75.8,74.0,94,83,73,30.05,29.98,21,8,26,0.44
2013-5-31,84.3,78.7,74.7,78.0,75.5,72.0,94,89,81,30.08,29.99,14,6,22,0.17
2013-6-1,85.8,81.1,76.5,77.0,75.7,73.0,90,83,74,30.06,29.98,16,7,23,0.02
2013-6-2,85.7,81.0,77.6,77.0,74.6,73.0,88,81,72,30.05,29.97,14,6,23,0.01
2013-6-3,87.0,81.7,77.2,78.0,76.1,73.0,91,83,72,30.04,29.96,15,7,23,0.00
2013-6-4,88.6,82.3,77.6,78.0,74.9,71.0,92,79,60,30.05,29.95,17,5,27,0.16
2013-6-5,87.0,82.1,78.9,79.0,76.9,75.0,91,84,76,30.03,29.92,17,7,24,0.01
2013-6-6,85.7,81.4,78.1,76.0,74.3,73.0,88,79,69,30.03,29.95,21,8,25,0.02
2013-6-7,86.1,80.7,73.7,76.0,74.2,71.0,93,81,68,30.03,29.96,15,7,22,0.46
2013-6-8,87.7,81.7,75.7,77.0,74.7,73.0,92,80,67,30.03,29.95,21,5,21,0.20
2013-6-9,87.4,82.2,78.5,78.0,75.7,72.0,89,81,72,30.05,29.98,18,7,22,0.00
2013-6-10,85.6,81.6,78.1,77.0,76.0,74.0,92,83,75,30.05,29.98,20,8,22,0.05
2013-6-11,85.8,81.3,78.0,78.0,76.5,74.0,91,85,76,30.07,29.98,16,7,23,0.13
2013-6-12,83.1,79.3,73.7,79.0,76.5,72.0,96,91,82,30.08,30.00,15,5,23,1.95
2013-6-13,86.6,83.0,78.8,79.0,77.6,76.0,91,84,77,30.05,29.97,16,7,24,0.01
2013-6-14,88.3,82.8,77.5,79.0,77.0,75.0,92,83,72,30.01,29.93,21,7,25,0.04
2013-6-15,92.6,82.9,78.4,81.0,77.9,75.0,94,85,60,30.05,29.95,13,5,22,0.28
2013-6-16,87.4,82.6,78.6,78.0,77.0,75.0,90,83,73,30.05,29.97,16,7,24,0.00
2013-6-17,86.7,82.4,80.3,78.0,76.5,74.0,88,82,75,30.05,30.00,16,8,23,0.00
2013-6-18,88.0,82.9,79.7,79.0,76.7,74.0,87,82,74,30.06,29.97,17,9,25,0.00
2013-6-19,82.8,77.8,73.1,78.0,74.6,71.0,94,90,80,30.04,29.97,17,7,28,0.90
2013-6-20,86.7,81.6,74.8,79.0,75.9,71.0,91,83,74,30.04,29.97,22,7,23,0.00
2013-6-21,87.1,81.9,78.3,76.0,74.4,73.0,86,78,67,30.06,30.00,15,8,19,0.00
2013-6-22,86.0,80.6,76.5,77.0,74.5,72.0,91,82,69,30.05,29.97,18,8,22,0.13
2013-6-23,86.8,80.0,76.8,77.0,75.4,73.0,93,86,67,30.05,29.98,16,5,24,0.45
2013-6-24,84.4,79.6,74.6,79.0,76.5,73.0,96,90,83,30.07,30.00,13,6,19,1.67
2013-6-25,89.5,82.0,77.5,79.0,76.9,75.0,93,84,71,30.03,29.97,13,6,20,0.13
2013-6-26,85.7,78.2,74.4,78.0,75.0,72.0,94,89,76,30.02,29.95,16,5,25,0.64
2013-6-27,85.8,77.6,73.3,79.0,74.7,71.0,95,91,71,30.03,29.95,16,3,26,1.05
2013-6-28,88.0,81.5,74.8,78.0,75.9,73.0,95,84,69,30.02,29.95,15,6,23,0.01
2013-6-29,87.5,82.6,78.3,77.0,75.9,75.0,88,80,71,30.01,29.93,15,7,23,0.00
2013-6-30,88.2,81.6,76.7,79.0,75.9,74.0,93,83,71,30.03,29.93,18,6,25,0.13
2013-7-1,87.1,81.0,77.1,78.0,75.8,74.0,91,84,74,30.08,29.98,16,4,24,0.50
2013-7-2,85.7,80.3,75.5,77.0,74.9,72.0,93,83,73,30.12,30.02,18,7,25,0.35
2013-7-3,86.9,80.8,74.4,78.0,75.3,72.0,93,83,69,30.08,29.99,18,8,24,0.32
2013-7-4,87.4,82.8,78.5,79.0,76.9,75.0,92,82,72,30.07,29.99,18,9,25,0.08
2013-7-5,88.3,83.0,80.0,77.0,75.3,73.0,87,78,67,30.05,29.99,15,8,22,0.00
2013-7-6,87.9,81.9,76.0,77.0,75.0,73.0,94,80,68,30.02,29.92,22,8,24,0.32
2013-7-7,87.0,80.2,76.3,80.0,76.6,74.0,94,89,75,30.02,29.91,19,5,24,0.24
2013-7-8,87.6,82.7,78.7,79.0,77.4,76.0,93,84,75,30.08,29.96,19,8,24,0.00
2013-7-9,87.6,82.4,75.2,79.0,77.5,72.0,93,85,75,30.08,30.01,19,9,25,0.39
2013-7-10,88.0,82.2,75.2,82.0,77.9,73.0,94,87,75,30.05,29.97,14,6,22,0.09
2013-7-11,88.9,83.2,79.8,79.0,76.9,75.0,90,81,71,30.05,29.97,11,6,17,0.00
2013-7-12,89.9,83.2,79.4,77.0,75.0,74.0,87,77,64,30.01,29.93,10,4,15,0.00
2013-7-13,90.5,82.1,76.0,77.0,74.9,72.0,91,79,65,29.99,29.92,15,4,17,0.33
2013-7-14,88.4,79.7,75.5,77.0,74.3,71.0,93,84,66,29.99,29.92,21,3,22,0.50
2013-7-15,88.9,79.7,75.8,78.0,75.1,73.0,92,86,71,30.02,29.94,14,3,27,0.27
2013-7-16,89.1,82.8,76.6,80.0,77.0,74.0,92,83,70,30.05,29.98,16,6,26,0.00
2013-7-17,89.3,83.6,79.6,79.0,77.2,75.0,91,81,71,30.05,29.99,16,7,24,0.07
2013-7-18,81.6,76.8,72.8,78.0,74.8,72.0,97,93,86,30.11,29.95,15,4,25,4.32
2013-7-19,88.4,83.1,78.0,79.0,76.9,75.0,95,82,71,30.10,30.01,16,8,24,0.01
2013-7-20,89.7,83.7,79.7,79.0,76.8,75.0,88,80,68,30.09,30.01,16,8,22,0.01
2013-7-21,88.2,82.7,73.8,78.0,75.6,71.0,94,79,67,30.06,29.98,18,8,31,0.36
2013-7-22,83.3,80.1,76.7,79.0,76.9,74.0,96,89,81,30.07,29.99,14,6,24,0.79
2013-7-23,89.4,84.0,79.8,80.0,78.1,76.0,94,83,71,30.05,29.95,15,5,19,0.01
2013-7-24,90.5,85.3,78.5,80.0,77.8,75.0,89,78,69,30.01,29.93,11,5,17,0.00
2013-7-25,88.6,83.8,80.5,79.0,77.2,76.0,87,81,69,30.07,29.97,16,7,22,0.00
2013-7-26,87.7,82.0,78.7,78.0,75.8,72.0,89,81,70,30.07,29.99,17,5,25,0.13
2013-7-27,88.1,82.1,77.5,78.0,75.6,74.0,90,81,69,30.05,29.96,17,4,19,0.05
2013-7-28,89.7,82.0,76.6,78.0,76.0,73.0,91,82,69,30.03,29.96,9,2,13,0.00
2013-7-29,95.3,83.4,76.6,78.0,74.5,68.0,92,76,43,30.06,29.95,11,3,18,0.00
2013-7-30,89.6,83.5,79.1,80.0,76.8,75.0,88,80,71,30.09,29.97,13,5,18,0.01
2013-7-31,90.5,84.0,78.7,78.0,76.0,73.0,89,77,65,30.03,29.95,14,4,16,0.01
2013-8-1,84.0,79.7,76.9,78.0,75.8,74.0,93,88,79,30.04,29.95,7,2,13,0.75
2013-8-2,89.0,83.6,78.1,79.0,77.1,75.0,91,81,69,30.08,30.01,18,7,23,0.02
2013-8-3,89.6,84.5,81.5,80.0,78.4,76.0,86,82,72,30.09,29.99,16,8,21,0.00
2013-8-4,90.5,84.9,82.0,80.0,78.2,77.0,87,80,69,30.06,29.94,14,7,19,0.00
2013-8-5,90.9,83.9,80.1,79.0,76.4,74.0,87,79,63,30.02,29.91,13,5,16,0.10
2013-8-6,89.5,82.7,77.1,78.0,75.5,71.0,89,79,65,29.98,29.89,14,5,21,0.11
2013-8-7,89.5,82.1,75.7,78.0,76.1,73.0,94,82,68,29.96,29.87,15,5,22,0.26
2013-8-8,90.0,83.7,78.3,79.0,76.6,74.0,92,79,67,29.94,29.86,18,7,23,0.00
2013-8-9,89.1,81.9,75.7,80.0,76.4,71.0,92,84,70,29.97,29.88,19,6,26,0.59
2013-8-10,89.2,83.8,79.0,80.0,77.5,73.0,93,81,67,29.99,29.91,16,7,21,0.13
2013-8-11,89.2,83.4,77.5,78.0,75.5,70.0,86,77,58,30.01,29.92,15,5,24,0.11
2013-8-12,88.9,81.4,75.0,78.0,74.7,71.0,90,80,66,30.01,29.92,11,4,21,0.01
2013-8-13,89.3,84.2,77.5,78.0,76.2,74.0,90,77,65,29.99,29.93,17,6,21,0.00
2013-8-14,90.4,84.9,80.0,80.0,77.4,76.0,88,79,67,30.02,29.93,17,7,25,0.05
2013-8-15,91.3,84.9,81.1,79.0,77.0,75.0,85,77,65,30.02,29.93,12,6,18,0.00
2013-8-16,88.3,82.5,78.0,80.0,76.3,73.0,89,81,73,29.97,29.88,14,6,19,0.17
2013-8-17,90.2,83.8,77.6,79.0,77.1,75.0,92,80,69,29.98,29.89,16,6,22,0.00
2013-8-18,89.0,83.5,78.4,79.0,77.1,75.0,94,81,67,29.99,29.92,15,6,19,0.32
2013-8-19,90.1,82.9,77.5,80.0,77.4,74.0,93,83,71,29.96,29.86,13,6,20,0.44
2013-8-20,92.4,82.3,79.1,78.0,76.5,72.0,91,83,59,30.01,29.87,17,5,26,0.18
2013-8-21,89.2,82.4,75.1,80.0,76.5,71.0,93,83,68,30.01,29.94,15,5,21,0.10
2013-8-22,89.5,81.2,73.9,79.0,75.3,69.0,90,82,69,29.99,29.91,11,3,19,0.67
2013-8-23,88.6,82.0,77.0,81.0,77.5,70.0,94,86,70,29.98,29.89,16,4,17,0.03
2013-8-24,90.4,84.7,79.2,80.0,76.9,74.0,88,78,67,30.03,29.94,19,6,23,0.00
2013-8-25,90.1,84.2,80.1,79.0,76.5,75.0,86,78,68,30.03,29.95,16,8,21,0.00
2013-8-26,89.7,83.1,78.3,80.0,77.5,75.0,91,83,69,29.98,29.88,18,6,22,0.02
2013-8-27,90.1,83.3,77.6,79.0,76.6,75.0,94,81,67,29.98,29.89,15,5,23,0.19
2013-8-28,89.4,83.8,78.2,80.0,76.9,74.0,89,80,70,30.02,29.92,17,5,23,0.04
2013-8-29,90.3,81.9,78.6,79.0,76.8,71.0,93,85,69,30.01,29.92,12,3,18,0.23
2013-8-30,91.6,83.2,77.4,81.0,77.4,75.0,94,83,66,30.00,29.91,13,4,18,0.00
2013-8-31,90.0,84.2,78.7,80.0,77.9,74.0,89,82,70,29.99,29.90,13,5,23,0.01
2013-9-1,90.4,84.4,78.9,80.0,78.1,76.0,95,82,68,29.97,29.89,16,5,17,0.01
2013-9-2,90.5,83.9,78.7,79.0,76.4,73.0,88,78,63,29.95,29.86,13,5,19,0.24
2013-9-3,88.8,81.6,75.5,79.0,75.8,73.0,93,83,69,29.92,29.83,16,5,22,0.70
2013-9-4,87.2,81.7,78.7,79.0,76.8,74.0,93,85,76,29.91,29.84,19,6,24,0.11
2013-9-5,83.4,78.9,75.7,78.0,75.4,73.0,94,89,81,29.96,29.83,10,4,21,0.35
2013-9-6,89.4,81.1,75.2,78.0,75.4,73.0,94,83,66,29.96,29.87,12,4,15,0.03
2013-9-7,88.6,82.3,78.2,77.0,75.6,73.0,90,80,64,29.95,29.85,9,3,22,0.00
2013-9-8,93.6,83.7,76.2,78.0,75.1,70.0,88,76,58,29.95,29.84,15,4,20,0.00
2013-9-9,91.8,85.1,79.5,80.0,77.1,73.0,89,77,57,29.98,29.88,17,4,18,0.00
2013-9-10,90.3,84.2,80.0,78.0,76.3,75.0,85,77,67,30.01,29.92,17,6,22,0.00
2013-9-11,88.9,83.0,78.6,78.0,75.9,74.0,88,79,65,29.99,29.89,13,4,18,0.08
2013-9-12,84.4,81.2,78.2,79.0,76.6,75.0,94,86,81,29.90,29.79,9,3,19,0.26
2013-9-13,91.3,84.7,80.7,78.0,76.6,75.0,86,77,65,29.82,29.73,10,4,15,0.00
2013-9-14,89.5,81.4,76.9,79.0,76.5,72.0,93,85,70,29.94,29.79,13,2,17,0.90
2013-9-15,89.5,83.8,78.1,80.0,77.9,75.0,93,83,71,29.98,29.89,17,4,24,0.00
2013-9-16,90.6,84.1,79.6,81.0,78.5,76.0,92,83,71,29.98,29.87,15,5,19,0.02
2013-9-17,90.4,84.2,79.9,80.0,78.1,77.0,91,82,68,29.96,29.85,16,4,19,0.00
2013-9-18,90.2,83.4,78.5,80.0,77.9,76.0,93,84,71,29.94,29.84,15,3,19,0.16
2013-9-19,97.1,84.9,79.6,80.0,77.4,75.0,91,79,52,29.95,29.84,12,2,19,0.17
2013-9-20,94.6,84.3,79.2,82.0,77.4,74.0,91,80,58,29.93,29.83,9,1,12,0.00
2013-9-21,93.2,83.1,78.2,80.0,77.2,75.0,91,83,64,29.89,29.80,5,1,12,0.01
2013-9-22,97.8,85.8,78.8,80.0,76.7,73.0,90,75,45,29.95,29.84,12,3,17,0.00
2013-9-23,91.2,85.0,79.0,80.0,77.9,75.0,88,79,67,30.01,29.91,20,5,21,0.00
2013-9-24,94.6,85.2,80.1,81.0,77.0,75.0,86,77,54,29.98,29.87,13,4,21,0.01
2013-9-25,90.7,84.5,79.4,79.0,76.4,74.0,86,77,61,29.94,29.82,12,4,21,0.00
2013-9-26,95.7,85.8,79.2,79.0,75.7,71.0,88,73,47,29.92,29.80,11,2,17,0.00
2013-9-27,93.9,85.3,79.3,79.0,76.1,74.0,87,74,56,29.94,29.81,12,3,19,0.00
2013-9-28,96.9,85.9,78.6,80.0,75.1,71.0,87,71,46,29.95,29.84,11,3,17,0.00
2013-9-29,96.6,85.9,78.8,81.0,76.4,73.0,88,74,50,29.96,29.85,15,4,21,0.00
2013-9-30,90.8,84.9,80.7,79.0,77.0,74.0,86,77,63,30.01,29.90,17,4,21,0.00
2013-10-1,92.8,85.4,79.2,80.0,77.5,75.0,88,78,63,30.00,29.91,13,4,17,0.03
2013-10-2,90.5,83.4,77.3,79.0,76.6,74.0,92,80,64,29.96,29.86,14,4,21,0.14
2013-10-3,89.1,82.4,78.5,80.0,77.0,74.0,92,84,69,29.97,29.86,16,4,21,0.09
2013-10-4,90.1,82.3,74.6,79.0,76.4,73.0,96,83,67,29.99,29.83,22,3,27,1.81
2013-10-5,90.5,81.1,74.2,78.0,75.1,72.0,96,83,63,29.97,29.85,9,1,10,0.13
2013-10-6,91.9,81.6,76.3,79.0,76.4,74.0,94,85,65,29.94,29.84,11,2,13,0.21
2013-10-7,92.2,83.6,77.1,80.0,77.3,75.0,94,82,68,29.95,29.86,13,2,17,0.00
2013-10-8,91.4,84.0,79.1,79.0,76.7,75.0,91,79,63,29.98,29.89,10,3,17,0.00
2013-10-9,91.3,83.1,78.2,80.0,75.6,73.0,89,79,58,29.97,29.87,13,3,18,0.00
2013-10-10,89.5,80.3,76.1,78.0,74.9,73.0,93,84,65,29.94,29.85,13,2,21,0.06
2013-10-11,89.5,81.6,75.8,79.0,75.7,73.0,94,82,67,29.94,29.86,13,3,18,0.03
2013-10-12,91.8,81.0,76.3,80.0,76.1,74.0,94,85,66,29.94,29.85,10,1,16,0.79
2013-10-13,89.2,80.4,76.4,79.0,75.6,74.0,94,85,67,29.95,29.85,13,1,18,0.45
2013-10-14,94.8,84.0,76.4,78.0,75.3,71.0,93,76,47,29.92,29.84,16,4,21,0.00
2013-10-15,94.6,84.3,77.5,79.0,75.4,72.0,91,76,50,29.94,29.84,13,3,23,0.09
2013-10-16,93.5,83.2,77.3,78.0,74.7,73.0,87,76,55,29.93,29.83,13,3,21,0.00
2013-10-17,90.8,82.8,76.3,77.0,74.8,73.0,89,77,63,29.96,29.84,8,2,16,0.00
2013-10-18,85.6,81.7,77.4,77.0,74.8,72.0,86,79,73,29.95,29.86,3,1,6,0.00
2013-10-19,91.9,82.1,77.1,79.0,76.3,75.0,92,83,64,29.93,29.85,10,2,12,0.02
2013-10-20,90.3,82.1,76.6,81.0,76.6,74.0,92,83,69,29.95,29.85,13,3,18,0.28
2013-10-21,90.7,81.6,78.2,81.0,76.5,74.0,92,84,70,29.96,29.86,8,1,14,0.00
2013-10-22,91.3,83.5,78.1,78.0,75.7,74.0,89,78,60,29.96,29.87,15,4,23,0.00
2013-10-23,90.3,82.7,77.4,77.0,74.7,72.0,89,77,59,29.96,29.86,14,4,25,0.13
2013-10-24,90.1,82.9,77.2,78.0,75.6,73.0,89,79,62,29.99,29.91,15,5,25,0.00
2013-10-25,91.6,84.1,80.2,78.0,75.1,72.0,84,75,52,30.03,29.93,10,4,18,0.05
2013-10-26,89.8,77.8,78.6,78.0,63.9,-99.9,85,72,62,30.00,29.89,16,-58,22,0.00
2013-10-27,88.3,76.7,79.4,78.0,62.9,-99.9,86,74,71,29.99,29.89,12,-69,21,0.02
2013-10-28,89.3,75.8,77.1,78.0,59.2,-99.9,92,70,65,30.01,29.91,17,-89,23,0.00
2013-10-29,87.9,69.3,76.1,78.0,50.4,-99.9,94,73,70,30.00,29.87,13,-144,19,0.98
2013-10-30,90.1,72.1,77.4,77.0,50.1,-99.9,89,67,63,29.98,29.87,9,-134,13,0.00
2013-10-31,89.2,69.0,74.8,78.0,48.0,-99.9,92,68,68,29.94,29.82,22,-153,22,0.35
2013-11-1,88.8,65.7,74.0,77.0,43.5,-99.9,94,69,67,29.92,29.81,12,-174,29,0.17
2013-11-2,88.8,66.8,74.8,79.0,44.1,-99.9,94,68,69,29.92,29.82,10,-176,17,0.05
2013-11-3,88.5,69.2,77.1,77.0,47.4,-99.9,89,66,64,29.92,29.82,14,-153,22,0.00
2013-11-4,89.9,70.3,76.1,78.0,51.0,-99.9,90,70,62,29.91,29.80,10,-135,17,0.03
2013-11-5,89.3,69.8,76.7,78.0,49.4,-99.9,89,68,65,29.90,29.80,11,-144,16,0.01
2013-11-6,90.4,69.6,76.6,77.0,49.3,-99.9,92,69,65,29.91,29.82,12,-144,15,0.09
2013-11-7,89.7,71.0,75.5,77.0,50.8,-99.9,94,68,62,29.91,29.82,11,-135,16,0.00
2013-11-8,89.6,69.8,76.9,78.0,48.2,-99.9,92,67,67,29.94,29.84,14,-153,16,0.00
2013-11-9,88.5,70.8,76.7,78.0,50.4,-99.9,93,68,67,29.98,29.89,14,-142,19,0.06
2013-11-10,88.6,69.1,77.7,79.0,46.4,-99.9,89,66,68,30.00,29.90,16,-162,23,0.03
2013-11-11,88.4,71.0,77.8,77.0,50.1,-99.9,90,67,69,30.02,29.93,12,-142,22,0.22
2013-11-12,88.5,69.8,78.2,79.0,48.2,-99.9,92,67,70,29.99,29.88,16,-154,25,0.44
2013-11-13,88.6,71.1,78.8,78.0,49.4,-99.9,85,65,66,29.97,29.87,13,-142,23,0.00
2013-11-14,88.8,70.7,76.8,77.0,49.1,-99.9,90,66,63,30.01,29.89,14,-144,18,0.14
2013-11-15,86.5,68.2,74.8,77.0,49.7,-99.9,95,73,72,30.00,29.86,13,-142,17,0.75
2013-11-16,89.2,69.5,74.9,77.0,49.6,-99.9,96,70,66,29.95,29.85,7,-144,13,0.23
2013-11-17,89.2,69.8,77.8,75.0,46.8,-99.9,90,62,52,29.89,29.79,10,-145,16,0.05
2013-11-18,86.7,68.3,76.5,74.0,43.2,-99.9,87,59,58,29.84,29.74,13,-160,15,0.06
2013-11-19,88.5,68.8,74.1,74.0,46.2,-99.9,90,63,59,29.90,29.77,9,-143,14,0.08
2013-11-20,87.9,69.5,73.5,74.0,46.7,-99.9,89,63,61,29.99,29.88,14,-143,21,0.00
2013-11-21,84.3,65.2,74.8,77.0,44.7,-99.9,95,72,74,30.02,29.93,14,-166,26,2.55
2013-11-22,87.0,69.1,75.4,75.0,47.7,-99.9,93,66,64,29.98,29.88,13,-141,21,0.00
2013-11-23,87.5,68.9,76.6,74.0,44.8,-99.9,85,61,61,29.94,29.85,14,-154,15,0.00
2013-11-24,88.6,69.2,73.5,76.0,48.4,-99.9,90,67,64,29.95,29.86,12,-143,17,0.00
2013-11-25,86.1,67.4,75.3,77.0,45.7,-99.9,92,68,66,30.00,29.91,17,-162,22,0.05
2013-11-26,86.4,69.4,75.4,75.0,48.3,-99.9,91,66,63,30.01,29.91,20,-138,24,0.36
2013-11-27,87.2,67.4,73.3,75.0,47.0,-99.9,95,69,58,29.96,29.86,24,-144,29,0.35
2013-11-28,86.7,66.6,76.4,76.0,42.9,-99.9,89,65,69,30.01,29.91,14,-173,23,0.23
2013-11-29,82.7,67.5,75.8,75.0,47.2,-99.9,91,68,71,30.03,29.92,15,-141,27,0.18
2013-11-30,79.5,62.4,73.1,75.0,42.0,-99.9,96,74,74,29.99,29.88,15,-173,25,1.74
2013-12-1,86.0,60.5,72.7,76.0,35.0,-99.9,96,67,71,29.93,29.84,8,-217,14,0.05
2013-12-2,91.4,67.2,73.7,75.0,41.8,-99.9,93,62,55,29.93,29.80,11,-178,17,0.01
2013-12-3,88.2,67.1,76.2,76.0,44.9,-99.9,90,67,65,30.00,29.89,9,-166,15,0.14
2013-12-4,83.2,65.3,73.2,76.0,48.3,-99.9,97,78,80,30.04,29.93,6,-146,13,1.80
2013-12-5,83.7,55.2,72.2,76.0,24.5,-99.9,97,64,77,30.06,29.95,8,-279,21,0.41
2013-12-6,85.8,64.9,72.2,76.0,42.0,-99.9,97,67,69,30.05,29.96,13,-174,29,0.02
2013-12-7,83.4,66.0,75.9,74.0,42.6,-99.9,87,64,70,30.07,29.96,20,-160,29,0.11
2013-12-8,82.6,64.5,75.7,73.0,38.7,-99.9,88,61,62,30.07,29.97,22,-178,39,0.10
2013-12-9,85.5,65.9,76.9,74.0,40.0,-99.9,90,61,63,30.10,30.01,23,-181,30,0.01
2013-12-10,86.1,68.3,74.3,76.0,48.6,-99.9,92,70,62,30.09,30.00,15,-140,21,0.12
2013-12-11,83.7,67.8,77.1,76.0,46.9,-99.9,90,68,74,30.10,30.00,19,-148,24,0.03
2013-12-12,85.9,67.8,76.6,75.0,44.4,-99.9,87,64,68,30.06,29.94,15,-163,19,0.00
2013-12-13,85.3,67.6,73.9,74.0,44.7,-99.9,91,64,65,30.05,29.95,15,-153,23,0.00
2013-12-14,84.5,67.2,76.2,77.0,45.3,-99.9,89,66,72,30.07,29.99,17,-154,24,0.05
2013-12-15,82.7,66.4,76.7,77.0,46.1,-99.9,91,70,75,30.11,30.00,15,-153,25,0.14
2013-12-16,83.9,65.7,75.1,76.0,45.2,-99.9,93,71,76,30.08,29.97,14,-161,26,0.05
2013-12-17,84.7,67.3,76.3,75.0,45.9,-99.9,87,67,69,30.09,29.95,17,-152,22,0.01
2013-12-18,85.5,65.4,73.5,76.0,41.7,-99.9,94,65,66,30.07,29.96,15,-174,22,0.32
2013-12-19,85.2,68.4,73.8,76.0,47.8,-99.9,95,68,70,30.07,29.98,18,-143,27,0.04
2013-12-20,83.8,65.3,73.4,75.0,43.2,-99.9,91,67,68,30.06,29.96,17,-161,35,0.32
2013-12-21,84.1,65.4,74.9,75.0,41.4,-99.9,88,64,66,30.07,29.98,26,-170,34,0.12
2013-12-22,83.8,66.7,75.8,73.0,43.4,-99.9,87,64,69,30.09,30.01,21,-158,25,0.13
2013-12-23,83.7,67.1,74.3,75.0,44.4,-99.9,93,66,65,30.08,29.98,23,-139,30,0.44
2013-12-24,79.1,63.0,71.2,73.0,44.1,-99.9,94,74,78,29.99,29.88,19,-154,23,0.41
2013-12-25,89.0,65.8,69.7,74.0,42.7,-99.9,88,63,55,29.99,29.86,8,-158,12,0.01
2013-12-26,85.9,67.1,71.2,76.0,47.7,-99.9,91,71,71,30.08,29.95,15,-144,18,0.04
2013-12-27,85.1,67.4,74.7,76.0,46.7,-99.9,93,69,72,30.11,30.02,13,-154,18,0.00
2013-12-28,84.9,65.8,75.6,75.0,42.8,-99.9,91,66,70,30.09,29.99,17,-173,19,0.05
2013-12-29,84.2,67.0,75.3,74.0,44.1,-99.9,89,67,68,30.06,29.96,14,-151,21,0.00
2013-12-30,84.9,64.7,74.1,75.0,41.4,-99.9,89,66,69,30.08,30.00,18,-176,24,0.05
2013-12-31,85.6,67.2,76.6,74.0,43.4,-99.9,84,62,67,30.11,30.00,18,-159,22,0.00
2014-1-1,83.2,65.1,73.7,75.0,42.1,-99.9,91,66,70,30.09,30.00,20,-169,31,0.11
2014-1-2,83.8,65.5,75.3,75.0,44.0,-99.9,90,68,70,30.04,29.94,23,-160,23,0.07